Location: Nebraska Star Party
(42.6000°N, 100.8833°W)
Time: 03:42:41
(UTC-05:00)

Amateur Radio Satellites - All Passes

Search period start: 30 May 2016 03:12
Search period end: 31 May 2016 03:12
Location: Nebraska Star Party, 42.6000°N, 100.8833°W

Satellite Date Start Highest point End Downlink Frequencies (MHz)
Time Altitude Azimuth
ITUPSAT 1 30 May 03:17:27 03:22:12 81° 255° (WSW) 03:27:01 437.325
SO-50 30 May 03:19:03 03:21:13 13° 328° (NNW) 03:23:24 436.795
Oscar 19 30 May 03:25:26 03:30:37 86° 285° (WNW) 03:35:45 437.125/150
ISS 30 May 03:28:17 03:31:32 59° 31° (NNE) 03:34:45 145.825
AO-7 30 May 03:37:00 03:37:37 10° 85° (E) 03:38:13 29.400- 29.500
YUBILEINY 30 May 03:38:15 03:46:45 51° 75° (ENE) 03:55:13 435.215
BEESAT 30 May 03:39:29 03:44:04 48° 260° (W) 03:48:41 436.000
KKS-1 30 May 03:52:10 03:56:04 30° 68° (ENE) 03:59:58 437.445
JAS-2 30 May 03:57:34 04:04:02 34° 298° (WNW) 04:09:55 435.910
Gurwin Techsat 1B 30 May 04:09:31 04:14:52 81° 285° (WNW) 04:20:11 435.225
ITAMSAT 1 30 May 04:12:55 04:17:54 43° 99° (E) 04:22:52 435.822/435.867
STARS 30 May 04:20:32 04:24:23 31° 68° (ENE) 04:28:16 437.465
MOZHAYETS 4 30 May 04:26:34 04:30:57 49° 72° (ENE) 04:35:22
Cosmos 2491 30 May 04:34:44 04:43:15 56° 90° (E) 04:51:46 435.465 / 435.565
Cosmos 2504 30 May 04:52:21 05:00:25 45° 74° (ENE) 05:08:46 435.465 / 435.565
RS-15 30 May 04:53:44 05:04:18 36° 255° (WSW) 05:14:49 29.354- 29.394
ISS 30 May 05:05:26 05:07:40 17° 227° (SW) 05:09:54 145.825
Oscar 19 30 May 05:07:11 05:09:07 12° 303° (WNW) 05:11:04 437.125/150
AO-85 30 May 05:22:24 05:26:08 19° 109° (ESE) 05:29:51 145.980
AO-7 30 May 05:23:43 05:32:01 61° 104° (ESE) 05:40:16 29.400- 29.500
KKS-1 30 May 05:28:50 05:32:37 27° 264° (W) 05:36:24 437.445
YUBILEINY 30 May 05:35:31 05:43:14 37° 275° (W) 05:50:59 435.215
Gurwin Techsat 1B 30 May 05:52:03 05:53:57 12° 303° (WNW) 05:55:52 435.225
ITAMSAT 1 30 May 05:52:54 05:57:07 25° 296° (WNW) 06:01:20 435.822/435.867
STARS 30 May 05:57:05 06:00:45 25° 265° (W) 06:04:25 437.465
CUBESAT XI-V 30 May 05:59:12 06:03:45 54° 72° (ENE) 06:08:21 437.345
MOZHAYETS 4 30 May 06:05:30 06:08:24 17° 269° (W) 06:11:20
Cosmos 2491 30 May 06:32:40 06:40:28 34° 291° (WNW) 06:48:19 435.465 / 435.565
BRITE-PL 30 May 06:34:39 06:35:45 11° 85° (E) 06:36:50 437.365/2234.400
HORYU 2 30 May 06:44:46 06:49:13 85° 286° (WNW) 06:53:40 437.375
Cosmos 2504 30 May 06:45:54 06:53:43 43° 273° (W) 07:01:50 435.465 / 435.565
NOAA 15 30 May 06:48:08 06:52:02 20° 93° (E) 06:55:54 137.62
STRAND 1 30 May 06:49:20 06:52:41 18° 61° (ENE) 06:56:03 437.568
AO-85 30 May 07:00:44 07:06:11 69° 306° (NW) 07:11:30 145.980
Cubesat XI-IV 30 May 07:03:07 07:06:59 20° 92° (E) 07:10:49 437.490
AO-7 30 May 07:17:07 07:24:20 34° 303° (WNW) 07:31:33 29.400- 29.500
NOAA 18 30 May 07:23:43 07:28:44 36° 98° (E) 07:33:45 137.9125
GONETS M04 30 May 07:35:45 07:38:38 12° 53° (NE) 07:41:30
CUBESAT XI-V 30 May 07:38:33 07:41:27 16° 269° (W) 07:44:23 437.345
CUTE-I 30 May 07:47:31 07:52:44 50° 100° (E) 07:57:55 437.470
LilacSat-2 30 May 07:58:59 08:02:46 67° 101° (E) 08:06:33 437.200
PRISM 30 May 08:00:06 08:01:59 13° 62° (ENE) 08:03:53 437.425
BRITE-PL 30 May 08:09:57 08:15:02 82° 284° (WNW) 08:19:40 437.365/2234.400
GOMX 1 30 May 08:19:57 08:24:31 58° 100° (E) 08:28:46 467.674
SO-50 30 May 08:25:55 08:29:45 24° 42° (NE) 08:33:29 436.795
STRAND 1 30 May 08:26:20 08:31:22 62° 259° (WSW) 08:36:27 437.568
NOAA 15 30 May 08:26:58 08:32:06 52° 290° (WNW) 08:37:12 137.62
CUTE 1.7 + AOD 2 30 May 08:40:54 08:42:36 12° 90° (E) 08:44:17 437.475
Cubesat XI-IV 30 May 08:42:08 08:47:23 55° 289° (WNW) 08:52:36 437.490
AO-85 30 May 08:44:23 08:47:37 16° 325° (NW) 08:50:46 145.980
DOVE 4 30 May 08:54:11 08:58:29 62° 101° (E) 09:02:36 437.250
PCSat 30 May 09:00:16 09:03:32 16° 104° (ESE) 09:06:49 145.827
CINEMA 3 30 May 09:03:54 09:07:09 22° 94° (E) 09:10:25 145.822/145.860
NOAA 18 30 May 09:04:29 09:09:19 33° 295° (WNW) 09:14:08 137.9125
AIST 1 30 May 09:05:10 09:09:33 82° 83° (E) 09:13:51
Cosmos 2499 30 May 09:18:25 09:26:07 34° 70° (ENE) 09:33:57 435.465 / 435.565
HO-68 30 May 09:26:18 09:33:09 45° 99° (E) 09:39:57 435.675
CUTE-I 30 May 09:28:18 09:32:27 23° 297° (WNW) 09:36:35 437.470
GONETS M04 30 May 09:29:04 09:37:40 59° 77° (ENE) 09:46:12
PRISM 30 May 09:32:40 09:36:46 62° 258° (WSW) 09:40:56 437.425
CUBEBUG 2 30 May 09:34:11 09:36:37 15° 92° (E) 09:39:04 437.445
AUBIESAT-1 30 May 09:36:36 09:39:32 29° 103° (ESE) 09:42:29 437.475
SEEDS 30 May 09:44:39 09:48:45 44° 99° (E) 09:52:49 437.485
M-CUBED/EXP-1 PRIME 30 May 09:45:46 09:48:58 49° 106° (ESE) 09:52:09 437.505
CANX-2 30 May 09:47:50 09:52:09 77° 103° (ESE) 09:56:27 2200.000
BRITE-PL 30 May 09:51:31 09:52:31 11° 304° (NW) 09:53:30 437.365/2234.400
UNISAT 6 30 May 09:53:13 09:54:47 12° 61° (ENE) 09:56:20 437.425
FUNcube-1 30 May 09:53:57 09:54:26 10° 89° (E) 09:54:56 145.935
UWE-3 30 May 09:56:04 09:59:00 18° 93° (E) 10:01:58 435.000/436.395/437.385
TIGRISAT 30 May 09:59:18 10:01:14 13° 62° (ENE) 10:03:11 435.000
GOMX 1 30 May 09:59:29 10:02:02 15° 299° (WNW) 10:04:32 467.674
SO-50 30 May 10:05:58 10:10:32 51° 242° (WSW) 10:14:56 436.795
CUTE 1.7 + AOD 2 30 May 10:14:35 10:18:49 61° 286° (WNW) 10:23:03 437.475
O/OREOS (USA 219) 30 May 10:15:22 10:19:56 88° 292° (WNW) 10:24:30 437.305
AAUSAT CUBESAT 2 30 May 10:24:40 10:28:53 72° 101° (ESE) 10:33:04 437.432
COMPASS 1 30 May 10:25:07 10:29:22 89° 311° (NW) 10:33:36 437.405
Oscar 11 30 May 10:30:39 10:34:35 33° 97° (E) 10:38:31 145.826/435.025
DELFI C3 30 May 10:31:12 10:33:34 15° 92° (E) 10:35:55 145.870
ANTELSAT 30 May 10:31:50 10:35:33 29° 69° (ENE) 10:39:15 437.575/2403.000
DOVE 4 30 May 10:33:41 10:35:38 13° 299° (WNW) 10:37:32 437.250
CINEMA 3 30 May 10:40:42 10:44:21 30° 291° (WNW) 10:47:59 145.822/145.860
PCSat 30 May 10:40:53 10:46:17 72° 302° (WNW) 10:51:44 145.827
ZACube-1 30 May 10:50:35 10:54:40 48° 99° (E) 10:58:49 437.345
CUBEBUG 2 30 May 11:09:29 11:13:30 46° 287° (WNW) 11:17:33 437.445
Cosmos 2499 30 May 11:11:11 11:19:37 58° 269° (W) 11:28:13 435.465 / 435.565
AUBIESAT-1 30 May 11:11:49 11:13:52 16° 299° (WNW) 11:15:57 437.475
HO-68 30 May 11:14:16 11:20:43 38° 297° (WNW) 11:27:10 435.675
SEEDS 30 May 11:21:17 11:24:07 18° 295° (WNW) 11:26:56 437.485
CANX-2 30 May 11:26:13 11:27:23 11° 299° (WNW) 11:28:32 2200.000
UNISAT 6 30 May 11:26:36 11:30:56 71° 258° (WSW) 11:35:13 437.425
GONETS M04 30 May 11:26:42 11:33:55 31° 277° (W) 11:41:08
FUNcube-1 30 May 11:26:56 11:31:08 70° 284° (WNW) 11:35:23 145.935
BEESAT 2 30 May 11:27:52 11:30:53 21° 113° (ESE) 11:33:54 435.950
DUCHIFAT 1 30 May 11:28:59 11:32:06 20° 66° (ENE) 11:35:12 145.980
UWE-3 30 May 11:31:43 11:35:37 38° 288° (WNW) 11:39:34 435.000/436.395/437.385
TIGRISAT 30 May 11:33:08 11:37:26 64° 259° (WSW) 11:41:42 435.000
BUGSAT 1 30 May 11:36:06 11:37:38 12° 62° (ENE) 11:39:09 437.445
BEESAT 3 30 May 11:55:28 11:59:24 75° 120° (ESE) 12:03:21 437.485
CUSAT 1 30 May 11:56:01 12:02:18 46° 89° (E) 12:09:42 437.405
O/OREOS (USA 219) 30 May 11:58:29 12:00:03 12° 311° (NW) 12:01:37 437.305
AAUSAT CUBESAT 2 30 May 12:02:27 12:03:47 11° 298° (WNW) 12:05:06 437.432
DELFI C3 30 May 12:04:47 12:08:38 43° 288° (WNW) 12:12:29 145.870
Oscar 11 30 May 12:07:06 12:10:33 23° 293° (WNW) 12:14:00 145.826/435.025
HUMSAT D 30 May 12:07:58 12:12:10 86° 104° (ESE) 12:16:23 437.325/437.525
ANTELSAT 30 May 12:08:39 12:12:15 25° 265° (W) 12:15:50 437.575/2403.000
POPSAT HIP 1 30 May 12:09:29 12:13:40 61° 74° (ENE) 12:17:50 437.405
QB50P1 30 May 12:09:34 12:13:45 62° 73° (ENE) 12:17:56 145.935-145.965
QB50P2 30 May 12:12:57 12:17:10 72° 75° (ENE) 12:21:24 145.880/145.840
POLYITAN 1 30 May 12:15:27 12:19:40 73° 75° (ENE) 12:23:53 437.675
DANDE 30 May 12:19:09 12:24:18 32° 84° (E) 12:30:38 436.750
JAS-2 30 May 12:24:09 12:30:24 29° 60° (ENE) 12:36:49 435.910
NANOSAT C BR1 30 May 12:26:09 12:30:23 90° 276° (W) 12:34:37 145.865
PCSat 30 May 12:27:39 12:30:41 15° 323° (NW) 12:33:44 145.827
ZACube-1 30 May 12:28:02 12:30:36 16° 295° (WNW) 12:33:11 437.345
DX 1 30 May 12:31:56 12:34:29 15° 92° (E) 12:37:01 434.975-435.025
CUBEBUG 1 30 May 12:32:18 12:35:29 19° 93° (E) 12:38:38 437.445
ESTCUBE 1 30 May 12:38:00 12:42:08 33° 97° (E) 12:46:13 437.505/2401.250
VELOX 1 30 May 12:47:07 12:50:53 27° 96° (E) 12:54:37 145.980
SPROUT 30 May 12:47:22 12:47:47 10° 89° (E) 12:48:13 437.525
DUCHIFAT 1 30 May 13:03:41 13:07:34 36° 262° (W) 13:11:27 145.980
BEESAT 2 30 May 13:04:47 13:08:30 37° 310° (NW) 13:12:14 435.950
Oscar 19 30 May 13:05:29 13:09:12 20° 62° (ENE) 13:12:55 437.125/150
BUGSAT 1 30 May 13:08:17 13:12:28 68° 258° (WSW) 13:16:37 437.445
Cosmos 2499 30 May 13:10:02 13:10:51 10° 289° (WNW) 13:11:40 435.465 / 435.565
UKube-1 30 May 13:14:11 13:18:09 34° 98° (E) 13:22:05 .
AISAT 30 May 13:23:11 13:27:36 70° 102° (ESE) 13:31:59 437.250
50 SAT 30 May 13:30:01 13:33:45 80° 284° (WNW) 13:37:29 437.505
BEESAT 3 30 May 13:35:22 13:37:34 14° 320° (NW) 13:39:48 437.485
CUSAT 1 30 May 13:38:15 13:44:33 38° 292° (WNW) 13:51:50 437.405
POPSAT HIP 1 30 May 13:48:14 13:49:50 12° 270° (W) 13:51:26 437.405
QB50P1 30 May 13:48:25 13:49:55 12° 270° (W) 13:51:26 145.935-145.965
AO-85 30 May 13:52:51 13:56:24 20° 39° (NE) 13:59:44 145.980
Gurwin Techsat 1B 30 May 13:52:57 13:57:06 24° 63° (ENE) 14:01:15 435.225
ITAMSAT 1 30 May 13:57:46 13:58:07 10° 55° (NE) 13:58:27 435.822/435.867
DANDE 30 May 14:01:04 14:06:47 46° 289° (WNW) 14:14:03 436.750
AIST 2 30 May 14:02:13 14:06:15 58° 120° (ESE) 14:10:19 435.215
DX 1 30 May 14:06:44 14:10:58 50° 288° (WNW) 14:15:09 434.975-435.025
JAS-2 30 May 14:07:17 14:14:43 69° 259° (W) 14:22:36 435.910
CUBEBUG 1 30 May 14:07:51 14:11:55 38° 290° (WNW) 14:15:56 437.445
ESTCUBE 1 30 May 14:15:03 14:18:47 25° 293° (WNW) 14:22:29 437.505/2401.250
SPROUT 30 May 14:19:58 14:24:13 71° 286° (WNW) 14:28:26 437.525
VELOX 1 30 May 14:23:30 14:27:19 29° 292° (WNW) 14:31:07 145.980
TISAT 1 30 May 14:32:23 14:36:21 41° 98° (E) 14:40:18 437.305
AO-7 30 May 14:34:06 14:39:52 21° 50° (NE) 14:45:38 29.400- 29.500
Oscar 19 30 May 14:43:00 14:48:06 56° 259° (W) 14:53:13 437.125/150
Cosmos 2491 30 May 14:44:35 14:51:55 29° 66° (ENE) 14:59:08 435.465 / 435.565
UKube-1 30 May 14:50:38 14:53:59 22° 294° (WNW) 14:57:20 .
AISAT 30 May 15:01:35 15:03:30 13° 299° (WNW) 15:05:26 437.250
SWISSCUBE 30 May 15:09:54 15:13:43 23° 94° (E) 15:17:30 437.505
ITUPSAT 1 30 May 15:17:45 15:21:40 24° 94° (E) 15:25:35 437.325
ITAMSAT 1 30 May 15:31:29 15:36:37 71° 73° (ENE) 15:41:48 435.822/435.867
Gurwin Techsat 1B 30 May 15:31:37 15:36:43 48° 260° (W) 15:41:52 435.225
AO-85 30 May 15:32:45 15:37:21 62° 241° (WSW) 15:41:32 145.980
BEESAT 30 May 15:38:43 15:43:14 40° 98° (E) 15:47:43 436.000
AIST 2 30 May 15:42:12 15:45:05 18° 318° (NW) 15:47:59 435.215
JAS-2 30 May 15:58:06 16:01:06 13° 278° (W) 16:04:10 435.910
TISAT 1 30 May 16:08:54 16:11:42 18° 295° (WNW) 16:14:30 437.305
HORYU 2 30 May 16:10:44 16:11:43 11° 59° (ENE) 16:12:42 437.375
MOZHAYETS 4 30 May 16:23:09 16:24:32 11° 88° (E) 16:25:54
AO-7 30 May 16:23:11 16:31:29 84° 70° (ENE) 16:39:51 29.400- 29.500
YUBILEINY 30 May 16:39:49 16:48:13 57° 91° (E) 16:56:39 435.215
Cosmos 2491 30 May 16:40:47 16:49:25 66° 268° (W) 16:57:58 435.465 / 435.565
SWISSCUBE 30 May 16:47:09 16:51:37 39° 291° (WNW) 16:56:04 437.505
ITUPSAT 1 30 May 16:55:10 16:59:36 37° 291° (WNW) 17:04:01 437.325
RS-15 30 May 17:05:06 17:15:18 42° 107° (ESE) 17:26:01 29.354- 29.394
ITAMSAT 1 30 May 17:13:53 17:16:37 14° 270° (W) 17:19:22 435.822/435.867
NOAA 18 30 May 17:14:53 17:16:23 11° 54° (NE) 17:17:54 137.9125
BEESAT 30 May 17:17:00 17:20:47 24° 295° (WNW) 17:24:33 436.000
KKS-1 30 May 17:18:10 17:22:31 53° 100° (E) 17:26:50 437.445
Cosmos 2504 30 May 17:32:54 17:39:09 32° 84° (E) 17:45:42 435.465 / 435.565
CUTE-I 30 May 17:33:53 17:36:07 13° 57° (ENE) 17:38:22 437.470
HORYU 2 30 May 17:43:11 17:47:35 85° 254° (WSW) 17:52:02 437.375
BRITE-PL 30 May 17:43:52 17:47:41 19° 62° (ENE) 17:51:27 437.365/2234.400
STARS 30 May 17:44:48 17:49:05 52° 100° (E) 17:53:20 437.465
PCSat 30 May 17:45:34 17:49:30 20° 42° (NE) 17:53:25 145.827
GOMX 1 30 May 17:54:31 17:55:32 11° 58° (ENE) 17:56:32 467.674
CUBESAT XI-V 30 May 17:56:51 17:59:00 13° 89° (E) 18:01:08 437.345
MOZHAYETS 4 30 May 17:57:35 18:02:13 76° 285° (WNW) 18:06:51
NOAA 15 30 May 18:08:31 18:13:18 36° 67° (ENE) 18:18:08 137.62
AO-7 30 May 18:19:21 18:25:10 21° 269° (W) 18:31:03 29.400- 29.500
Cubesat XI-IV 30 May 18:25:32 18:30:18 35° 67° (ENE) 18:35:06 437.490
YUBILEINY 30 May 18:37:50 18:45:26 33° 291° (WNW) 18:53:05 435.215
LilacSat-2 30 May 18:41:41 18:45:09 35° 72° (ENE) 18:48:37 437.200
Cosmos 2491 30 May 18:41:50 18:44:23 12° 288° (WNW) 18:46:56 435.465 / 435.565
O/OREOS (USA 219) 30 May 18:46:07 18:49:38 22° 56° (NE) 18:53:08 437.305
NOAA 18 30 May 18:50:39 18:56:05 73° 73° (ENE) 19:01:32 137.9125
KKS-1 30 May 18:55:57 18:58:39 16° 297° (WNW) 19:01:21 437.445
CUTE-I 30 May 19:10:03 19:15:21 86° 74° (ENE) 19:20:42 437.470
RS-15 30 May 19:15:54 19:27:13 63° 311° (NW) 19:39:13 29.354- 29.394
BRITE-PL 30 May 19:19:51 19:25:31 72° 258° (WSW) 19:31:12 437.365/2234.400
STARS 30 May 19:22:23 19:25:01 16° 297° (WNW) 19:27:39 437.465
Cosmos 2504 30 May 19:25:12 19:32:10 48° 285° (WNW) 19:39:37 435.465 / 435.565
GOMX 1 30 May 19:27:17 19:32:43 71° 75° (ENE) 19:38:01 467.674
PCSat 30 May 19:28:06 19:33:33 79° 242° (WSW) 19:38:57 145.827
CUBESAT XI-V 30 May 19:32:08 19:36:51 67° 285° (WNW) 19:41:29 437.345
CUTE 1.7 + AOD 2 30 May 19:36:09 19:36:31 10° 61° (ENE) 19:36:55 437.475
BEESAT 2 30 May 19:44:47 19:47:44 19° 43° (NE) 19:50:39 435.950
NOAA 15 30 May 19:48:27 19:53:05 30° 264° (W) 19:57:46 137.62
HO-68 30 May 19:55:50 20:02:13 37° 62° (ENE) 20:08:37 435.675
DOVE 4 30 May 19:59:10 20:04:19 70° 75° (ENE) 20:09:14 437.250
Cubesat XI-IV 30 May 20:05:42 20:10:22 31° 264° (W) 20:15:05 437.490
CINEMA 3 30 May 20:05:59 20:09:45 25° 68° (ENE) 20:13:25 145.822/145.860
ISS 30 May 20:10:20 20:11:29 11° 130° (SE) 20:12:37 145.825
BEESAT 3 30 May 20:12:10 20:16:03 53° 53° (NE) 20:19:54 437.485
LilacSat-2 30 May 20:17:10 20:19:34 16° 267° (W) 20:21:59 437.200
AUBIESAT-1 30 May 20:22:54 20:26:46 50° 68° (ENE) 20:30:24 437.475
O/OREOS (USA 219) 30 May 20:25:00 20:29:11 39° 254° (WSW) 20:33:20 437.305
M-CUBED/EXP-1 PRIME 30 May 20:32:30 20:36:36 82° 69° (ENE) 20:40:23 437.505
CUBEBUG 2 30 May 20:33:32 20:35:58 15° 64° (ENE) 20:38:22 437.445
NOAA 18 30 May 20:34:13 20:37:18 15° 270° (W) 20:40:23 137.9125
STRAND 1 30 May 20:36:05 20:41:00 42° 99° (E) 20:45:52 437.568
SEEDS 30 May 20:37:04 20:40:48 33° 70° (ENE) 20:44:35 437.485
CANX-2 30 May 20:41:01 20:45:08 58° 74° (ENE) 20:49:18 2200.000
GONETS M04 30 May 20:41:21 20:44:07 12° 72° (ENE) 20:46:53
CUTE-I 30 May 20:54:11 20:56:05 12° 272° (W) 20:57:59 437.470
UWE-3 30 May 20:54:19 20:57:04 17° 65° (ENE) 20:59:47 435.000/436.395/437.385
PHONESAT 2.4 30 May 21:01:51 21:03:20 13° 150° (SSE) 21:04:49 2401.200-2431.200
CUTE 1.7 + AOD 2 30 May 21:07:30 21:11:42 81° 259° (W) 21:15:57 437.475
GOMX 1 30 May 21:07:57 21:11:12 16° 270° (W) 21:14:26 467.674
PRISM 30 May 21:14:35 21:17:19 17° 93° (E) 21:20:01 437.425
AAUSAT CUBESAT 2 30 May 21:15:20 21:19:19 50° 73° (ENE) 21:23:22 437.432
PCSat 30 May 21:15:52 21:15:59 10° 259° (W) 21:16:07 145.827
COMPASS 1 30 May 21:16:12 21:20:19 65° 74° (ENE) 21:24:27 437.405
DELFI C3 30 May 21:19:51 21:20:34 10° 62° (ENE) 21:21:17 145.870
BEESAT 2 30 May 21:21:58 21:25:49 48° 242° (WSW) 21:29:39 435.950
Oscar 11 30 May 21:26:10 21:29:50 28° 68° (ENE) 21:33:30 145.826/435.025
RS-15 30 May 21:33:03 21:42:47 28° 342° (NNW) 21:52:55 29.354- 29.394
AIST 1 30 May 21:34:52 21:39:05 46° 93° (E) 21:43:18
DOVE 4 30 May 21:39:38 21:42:24 14° 270° (W) 21:45:05 437.250
CINEMA 3 30 May 21:42:32 21:46:46 33° 263° (W) 21:50:51 145.822/145.860
HO-68 30 May 21:42:59 21:49:46 46° 261° (W) 21:56:37 435.675
ISS 30 May 21:44:11 21:47:28 87° 330° (NNW) 21:50:44 145.825
ZACube-1 30 May 21:47:05 21:51:00 40° 72° (ENE) 21:54:55 437.345
BEESAT 3 30 May 21:51:12 21:53:18 14° 250° (WSW) 21:55:25 437.485
Cosmos 2499 30 May 21:58:02 22:03:25 22° 79° (E) 22:09:03 435.465 / 435.565
AUBIESAT-1 30 May 21:59:36 22:01:26 13° 261° (W) 22:03:15 437.475
CUBEBUG 2 30 May 22:07:58 22:12:12 52° 260° (W) 22:16:21 437.445
SEEDS 30 May 22:13:23 22:16:34 21° 267° (W) 22:19:48 437.485
STRAND 1 30 May 22:15:46 22:19:55 25° 296° (WNW) 22:24:05 437.568
CANX-2 30 May 22:19:38 22:21:22 12° 270° (W) 22:23:08 2200.000
AIST 2 30 May 22:22:53 22:26:55 47° 52° (NE) 22:30:55 435.215
FUNcube-1 30 May 22:22:53 22:27:05 84° 257° (WSW) 22:31:15 145.935
UWE-3 30 May 22:29:08 22:33:13 44° 261° (W) 22:37:15 435.000/436.395/437.385
GONETS M04 30 May 22:30:27 22:39:07 67° 93° (E) 22:47:45
CUSAT 1 30 May 22:31:00 22:37:55 36° 67° (ENE) 22:43:40 437.405
PHONESAT 2.4 30 May 22:36:36 22:39:34 39° 166° (SSE) 22:42:32 2401.200-2431.200
PRISM 30 May 22:48:52 22:52:49 41° 289° (WNW) 22:56:43 437.425
DELFI C3 30 May 22:50:53 22:54:50 71° 258° (WSW) 22:58:50 145.870
AAUSAT CUBESAT 2 30 May 22:52:59 22:55:07 14° 270° (W) 22:57:16 437.432
COMPASS 1 30 May 22:55:21 22:56:18 11° 271° (W) 22:57:17 437.405
DANDE 30 May 22:56:40 23:04:09 34° 66° (ENE) 23:10:53 436.750
HUMSAT D 30 May 22:59:43 23:03:45 63° 74° (ENE) 23:07:47 437.325/437.525
Oscar 11 30 May 23:02:17 23:05:55 26° 265° (W) 23:09:34 145.826/435.025
AIST 1 30 May 23:14:10 23:16:57 16° 290° (WNW) 23:19:45
UNISAT 6 30 May 23:17:59 23:21:20 21° 94° (E) 23:24:42 437.425
ISS 30 May 23:21:39 23:24:16 22° 345° (NNW) 23:26:54 145.825
TIGRISAT 30 May 23:24:10 23:27:39 23° 95° (E) 23:31:10 435.000
ZACube-1 30 May 23:24:42 23:27:29 17° 268° (W) 23:30:15 437.345
DX 1 30 May 23:28:25 23:31:03 16° 63° (ENE) 23:33:42 434.975-435.025
CUBEBUG 1 30 May 23:29:07 23:32:16 19° 65° (ENE) 23:35:24 437.445
ESTCUBE 1 30 May 23:38:07 23:42:10 33° 69° (ENE) 23:46:15 437.505/2401.250
VELOX 1 30 May 23:45:05 23:48:50 27° 67° (ENE) 23:52:36 145.980
Cosmos 2499 30 May 23:48:19 23:55:37 69° 281° (W) 00:03:32 435.465 / 435.565
RS-15 30 May 23:50:38 00:00:38 28° 17° (NNE) 00:10:47 29.354- 29.394
ANTELSAT 30 May 23:58:23 00:02:39 58° 100° (E) 00:07:00 437.575/2403.000
QB50P2 30 May 23:59:46 00:00:47 11° 89° (E) 00:01:48 145.880/145.840
POLYITAN 1 31 May 00:02:07 00:03:16 11° 89° (E) 00:04:26 437.675
AIST 2 31 May 00:02:16 00:05:03 18° 249° (WSW) 00:07:49 435.215
50 SAT 31 May 00:08:42 00:12:12 48° 73° (ENE) 00:15:45 437.505
UKube-1 31 May 00:09:18 00:13:09 33° 69° (ENE) 00:17:03 .
NANOSAT C BR1 31 May 00:11:29 00:13:35 13° 91° (E) 00:15:40 145.865
PHONESAT 2.4 31 May 00:13:02 00:16:07 58° 183° (S) 00:19:13 2401.200-2431.200
CUSAT 1 31 May 00:13:09 00:20:10 44° 271° (W) 00:25:54 437.405
SO-50 31 May 00:20:10 00:24:48 44° 117° (ESE) 00:29:28 436.795
AISAT 31 May 00:20:51 00:25:18 67° 74° (ENE) 00:29:44 437.250
GONETS M04 31 May 00:29:20 00:36:37 28° 293° (WNW) 00:43:56
HUMSAT D 31 May 00:39:01 00:39:48 10° 271° (W) 00:40:35 437.325/437.525
DANDE 31 May 00:39:17 00:47:27 58° 268° (W) 00:54:34 436.750
DUCHIFAT 1 31 May 00:46:57 00:50:41 31° 97° (E) 00:54:23 145.980
BUGSAT 1 31 May 00:50:40 00:53:05 15° 92° (E) 00:55:29 437.445
UNISAT 6 31 May 00:54:12 00:58:07 35° 290° (WNW) 01:02:06 437.425
ISS 31 May 00:59:18 01:01:33 17° 5° (N) 01:03:48 145.825
TIGRISAT 31 May 01:00:32 01:04:22 32° 290° (WNW) 01:08:14 435.000
DX 1 31 May 01:02:31 01:06:49 53° 260° (W) 01:11:08 434.975-435.025
CUBEBUG 1 31 May 01:04:01 01:08:14 43° 261° (W) 01:12:29 437.445
SPROUT 31 May 01:13:46 01:18:04 87° 255° (WSW) 01:22:23 437.525
ESTCUBE 1 31 May 01:15:19 01:19:01 24° 266° (W) 01:22:44 437.505/2401.250
JAS-2 31 May 01:18:36 01:23:38 20° 86° (E) 01:28:17 435.910
VELOX 1 31 May 01:21:17 01:25:12 30° 264° (W) 01:29:08 145.980
TISAT 1 31 May 01:24:38 01:28:27 34° 70° (ENE) 01:32:16 437.305
POPSAT HIP 1 31 May 01:29:08 01:33:21 78° 285° (WNW) 01:37:32 437.405
QB50P1 31 May 01:29:10 01:33:23 77° 283° (WNW) 01:37:33 145.935-145.965
QB50P2 31 May 01:32:51 01:37:02 66° 286° (WNW) 01:41:12 145.880/145.840
POLYITAN 1 31 May 01:35:20 01:39:31 64° 285° (WNW) 01:43:40 437.675
ANTELSAT 31 May 01:36:37 01:38:55 14° 297° (WNW) 01:41:15 437.575/2403.000
50 SAT 31 May 01:45:11 01:46:13 11° 269° (W) 01:47:16 437.505
NANOSAT C BR1 31 May 01:45:32 01:49:37 52° 287° (WNW) 01:53:41 145.865
UKube-1 31 May 01:45:47 01:49:15 23° 265° (W) 01:52:44 .
Cosmos 2499 31 May 01:47:18 01:50:34 13° 305° (NW) 01:53:55 435.465 / 435.565
PHONESAT 2.4 31 May 01:49:49 01:52:37 30° 199° (SSW) 01:55:25 2401.200-2431.200
AISAT 31 May 02:00:30 02:02:12 12° 270° (W) 02:03:55 437.250
SO-50 31 May 02:01:12 02:05:27 29° 315° (NW) 02:09:43 436.795
RS-15 31 May 02:04:15 02:16:26 61° 48° (NE) 02:28:35 29.354- 29.394
SWISSCUBE 31 May 02:16:59 02:21:04 29° 67° (ENE) 02:25:09 437.505
DUCHIFAT 1 31 May 02:22:56 02:26:13 23° 293° (WNW) 02:29:30 145.980
BUGSAT 1 31 May 02:24:53 02:28:41 41° 288° (WNW) 02:32:28 437.445
ITUPSAT 1 31 May 02:25:07 02:29:16 31° 67° (ENE) 02:33:27 437.325
DANDE 31 May 02:26:46 02:28:20 11° 288° (WNW) 02:29:54 436.750
ISS 31 May 02:35:36 02:38:40 36° 25° (NNE) 02:41:44 145.825
BEESAT 31 May 02:45:38 02:50:13 50° 71° (ENE) 02:54:49 436.000
YUBILEINY 31 May 02:49:16 02:56:39 29° 67° (ENE) 03:04:01 435.215
Oscar 19 31 May 02:53:47 02:58:47 48° 100° (E) 03:03:44 437.125/150
TISAT 1 31 May 03:00:59 03:04:11 21° 266° (W) 03:07:22 437.305
